Regional Weather Roundup
Issued by NWS

Home | Current Version | Previous Version | Graphics & Text | Print | Product List | Glossary On
Versions: 1 2 3 4 5 6 7 8 9 10 11 12 13 14 15 16 17 18 19 20 21 22 23 24 25 26 27 28 29 30 31 32 33 34 35 36 37 38 39 40 41 42 43 44 45 46 47 48 49 50
000
ASUS45 KSLC 010210
RWRUT

UTAH REGIONAL WEATHER ROUNDUP
NATIONAL WEATHER SERVICE SALT LAKE CITY UT
800 PM MDT TUE JUN 30 2015

UTZ001>011-023>025-010300-

NORTHERN UTAH

CITY           SKY/WX    TMP DP  RH WIND       PRES   REMARKS
HILL AFB       MOCLDY    94  48  21 NW7       30.03R HX  90
LOGAN          SUNNY     90  57  32 NW3       30.00R
OGDEN          PTSUNNY   95  46  18 W5        29.99R HX  91
PROVO AIRPORT  MOCLDY    90  66  45 VRB5      29.99R HX  92
SALT LAKE CITY MOCLDY    96  48  19 N7        29.95S HX  92
VERNAL         CLOUDY    78  50  37 N7        30.09F
WENDOVER       CLOUDY    88  48  25 NW24      30.05R
WEST JORDAN    CLEAR     93  46  20 NW6       30.00S

$$

UTZ012>022-026-027-010300-

SOUTHERN/CENTRAL UTAH

CITY           SKY/WX    TMP DP  RH WIND       PRES   REMARKS
BRYCE CANYON   CLOUDY    71  56  58 N5        30.30S
CEDAR CITY     MOCLDY    87  45  23 NW9       30.10R
MILFORD        CLOUDY    92  40  16 W14G26    30.03R
MOAB/CYNLANDS  CLEAR     94  43  17 E15       29.94R HX  90
PRICE          LGT RAIN  82  50  32 N12       30.13R
ST GEORGE      MOCLDY   104  46  14 SW15      29.83R HX 100
KANAB          MOCLDY    91  48  22 CALM      30.08R

$$

REGIONAL REPORTS     COLORADO/ARIZONA

CITY           SKY/WX    TMP DP  RH WIND       PRES   REMARKS
CRAIG, CO      CLOUDY    76  49  38 SE6       30.19R
GRAND JUNCTION CLOUDY    91  40  16 NE9       30.00S
RIFLE          CLOUDY    88  40  18 W9        30.09R
MONTROSE       PTCLDY    86  44  23 NW22G33   30.12R
CORTEZ         CLEAR     88  47  24 W6        30.07R
PAGE, AZ       PTCLDY   100  42  13 NW9G16    29.92S HX  95
GRAND CANYON   MOCLDY    83  49  30 S15G22    30.17R
KINGMAN        CLOUDY    95  54  25 SW16      29.92S HX  93
FLAGSTAFF      CLOUDY    74  56  53 W3        30.22F

$$

REGIONAL REPORTS    NEVADA/IDAHO/WYOMING

CITY           SKY/WX    TMP DP  RH WIND       PRES   REMARKS
LAS VEGAS, NV  PTSUNNY  110  46  11 S5        29.72R HX 105
ELY            CLOUDY    74  50  42 N21G29    30.24S
ELKO           CLOUDY    81  49  32 SW14G21   30.10F
POCATELLO, ID  SUNNY     86  53  32 NE10      30.02R
BURLEY         CLOUDY    86  64  47 SW9       29.98R
EVANSTON, WY   PTCLDY    83  42  23 N16G22    30.24R
ROCK SPRINGS   CLOUDY    73  56  54 S12       30.20S

$$



USA.gov is the U.S. government's official web portal to all federal, state and local government web resources and services.